Regional Weather Roundup
Issued by NWS

Home | Current Version | Previous Version | Graphics & Text | Print | Product List | Glossary On
Versions: 1 2 3 4 5 6 7 8 9 10 11 12 13 14 15 16 17 18 19 20 21 22 23 24 25 26 27 28 29 30 31 32 33 34 35 36 37 38 39 40 41 42 43 44 45 46 47 48 49 50
000
ASUS43 KLOT 262108
RWRIL

ILLINOIS REGIONAL WEATHER ROUNDUP
NATIONAL WEATHER SERVICE CHICAGO/ROMEOVILLE IL
400 PM CDT SUN MAR 26 2017

NOTE: "FAIR" INDICATES FEW OR NO CLOUDS BELOW 12,000 FEET WITH NO
SIGNIFICANT WEATHER AND/OR OBSTRUCTIONS TO VISIBILITY.

* THESE STATIONS ARE NOT UNDER NWS QUALITY CONTROL. THEY ALSO MAY NOT
  REPORT WEATHER SUCH AS PRECIPITATION OR FOG.

ILZ001-002-007-009-015-016-024-262200-
NORTHWEST ILLINOIS

CITY           SKY/WX    TMP DP  RH WIND       PRES   REMARKS
MOLINE         CLOUDY    54  51  90 W7        29.82S FOG
STERLING*      CLOUDY    54  52  93 SW7       29.82S
SAVANNA*       CLOUDY    56  53  90 SW3       29.81S
$$

ILZ003-004-008-010-011-017-018-262200-
NORTH CENTRAL ILLINOIS

CITY           SKY/WX    TMP DP  RH WIND       PRES   REMARKS
ROCKFORD       CLOUDY    57  51  80 SW12      29.82S
FREEPORT*      CLOUDY    53  52  97 CALM      29.82S FOG
ROCHELLE*      CLOUDY    55  52  92 SW7       29.82S
DE KALB*       CLOUDY    55  52  88 SW9       29.82S
PERU*          CLOUDY    54  50  87 SW8       29.83S
$$

ILZ005-006-012>014-019>023-262200-
NORTHEAST ILLINOIS

CITY           SKY/WX    TMP DP  RH WIND       PRES   REMARKS
CHICAGO-OHARE  CLOUDY    62  50  64 SW13      29.79F
CHICAGO-MIDWAY CLOUDY    60  51  72 SW13G20   29.81S
AURORA         CLOUDY    57  51  80 SW9       29.82S
LANSING*       CLOUDY    60  54  79 W17       29.82S
JOLIET*        CLOUDY    57  53  84 SW8       29.83S
WAUKEGAN       CLOUDY    51  51 100 E3        29.80S FOG
DUPAGE AIRPORT CLOUDY    57  53  86 SW13      29.80S
KANKAKEE*      CLOUDY    58  51  76 SW12      29.84S
WHEELING       CLOUDY    61  53  75 SW10      29.80F
MORRIS*        CLOUDY    56  51  84 SW3       29.81F
ROMEOVILLE*    CLOUDY    56  54  93 SW12      29.82S
$$

LMZ740>746-262200-
SOUTHERN LAKE MICHIGAN

STATION/POSITION SKY/WX   TEMP    WIND        PRES    VSBY  WAVE
                          AIR SEA DIR/SP/G                  HT/PER
                          (F)     (DEG/KT/KT) (MB)    (MI)  (FT/S)
HARRISON CRIB              61     210/ 15/ 18   N/A
BURNHAM HARBOR             60     190/ 11/ 15   N/A
CALUMET HARBOR             60     220/  7/ 15 1009.0R
BURNS HARBOR               60     180/  8/ 11 1010.2S
MICHIGAN CITY              58     190/  6/  7   N/A
$$

ILZ025>027-034>036-040-047-049-050-058-095>099-262200-
WEST-CENTRAL ILLINOIS

CITY           SKY/WX    TMP DP  RH WIND       PRES   REMARKS
QUINCY         CLOUDY    51  46  83 W10       29.89R
GALESBURG*     CLOUDY    49  47  93 W12       29.85R
MACOMB*        CLOUDY    50  47  90 W12       29.89R
JACKSONVILLE*  CLOUDY    55  49  81 SW12      29.88S
PITTSFIELD*    CLOUDY    54  48  82 W10       29.91R
$$

ILZ028>032-037-038-041>044-048-051>054-059>061-262200-
CENTRAL ILLINOIS

CITY           SKY/WX    TMP DP  RH WIND       PRES   REMARKS
PONTIAC        CLOUDY    55  54  94 SW9       29.85S
BLOOMINGTON    LGT RAIN  52  50  93 SW14      29.86S FOG
DECATUR        CLOUDY    57  49  74 W14G21    29.87S
PEORIA         CLOUDY    52  49  89 SW12      29.85R
LACON*         CLOUDY    54  50  87 W9        29.83S
LINCOLN*       CLOUDY    55  51  85 W3        29.87R
SPRINGFIELD    CLOUDY    57  51  80 W9        29.87S
TAYLORVILLE    NOT AVBL
$$

ILZ033-039-045-046-055>057-062-063-262200-
EAST-CENTRAL ILLINOIS

CITY           SKY/WX    TMP DP  RH WIND       PRES   REMARKS
CHAMPAIGN      CLOUDY    60  48  64 SW21      29.86R
RANTOUL*       CLOUDY    61  50  66 W12G17    29.85S
MATTOON        CLOUDY    60  49  66 SW12      29.87R
PARIS*         CLOUDY    58  51  77 SW16      29.88R
$$

ILZ079-100>102-262200-
SOUTHWEST ILLINOIS

CITY           SKY/WX    TMP DP  RH WIND       PRES   REMARKS
ALTON          CLOUDY    57  48  72 SW8       29.91R
BELLEVILLE     CLOUDY    59  51  74 SW8       29.90S
CAHOKIA*       CLOUDY    60  49  66 SW7       29.91S
SPARTA*        CLOUDY    60  49  68 SW8       29.93R
$$

ILZ064>066-069>071-074>076-080>082-084>086-088>090-092>094-262200-
SOUTH-CENTRAL ILLINOIS

CITY           SKY/WX    TMP DP  RH WIND       PRES   REMARKS
CARBONDALE     CLOUDY    60  49  66 SW10      29.93S
CAIRO*         MOSUNNY   64  52  64 SW13      29.94S
EFFINGHAM*     CLOUDY    59  51  75 SW13      29.91R
MARION         PTSUNNY   64  48  55 SW12      29.94S
MT. VERNON     CLOUDY    60  50  69 SW13      29.92R
CENTRALIA*     CLOUDY    60  52  76 W10       29.91S
SALEM*         CLOUDY    60  51  72 W10       29.91R
METROPOLIS*    PTSUNNY   64  50  61 SW14      29.95S
$$

ILZ067-068-072-073-078-083-087-091-262200-
SOUTHEAST ILLINOIS

CITY           SKY/WX    TMP DP  RH WIND       PRES   REMARKS
LAWRENCEVILLE  LGT RAIN  62  50  64 SW15      29.90R
FLORA*         CLOUDY    62  50  65 W10       29.91R
FAIRFIELD*     CLOUDY    61  49  64 SW6       29.90S
HARRISBURG*    PTSUNNY   64  49  59 W15G22    29.93R
ROBINSON*      CLOUDY    59  49  70 SW14      29.90S
CARMI*         CLOUDY    63  50  63 SW15      29.92R
$$

ABBREVIATIONS USED IN REMARKS
   TC - TEMPERATURE IN CELSIUS
  WCI - WIND CHILL INDEX
   HX - HEAT INDEX
  VSB - VISIBILITY
$$





USA.gov is the U.S. government's official web portal to all federal, state and local government web resources and services.